User: anonymous   Login
Location: Caltech
(34.1382°N, 118.1253°W)
Time: 16:05:51
(UTC-07:00)
Language:

Iridium 15 - Orbit

View from above orbital plane
View from above orbital plane
View from above satellite
View from above satellite

Ground track
Ground track

The orbit data is extracted from the following two-line orbital elements,

1 24869U 97034A   14295.29775992  .00000767  00000-0  26673-3 0  1217
2 24869 086.3969 066.8131 0002135 110.2183 312.5577 14.34217869905047
Epoch (UTC): 22 October 2014 07:08:46
Eccentricity: 0.0002135
inclination: 86.3969°
perigee height: 776 km
apogee height: 779 km
right ascension of ascending node: 66.8131°
argument of perigee: 110.2183°
revolutions per day: 14.34217869
mean anomaly at epoch: 312.5577°
orbit number at epoch: 90504

The dashed part of the orbit path shows where the satellite is in the earth's shadow,  

DLR